This is the latest recevied weather packets stored in our database for station/object DL6MAA-11. If no packets are shown the sender has not sent any weather packets the latest 10 day(s).
| Time | Temp. | Humidity | Pressure | Rain* | Wind** | Luminosity | Snow |
|---|---|---|---|---|---|---|---|
| 1777274854 | 12.22° C | 51% | 1018.7 hPa | 0 mm | - | 336 W/m² | - |
| 1777274555 | 11.11° C | 60% | 1018.7 hPa | 0 mm | - | 325 W/m² | - |
| 1777274256 | 11.11° C | 58% | 1018.7 hPa | 0 mm | - | 320 W/m² | - |
| 1777273943 | 11.11° C | 61% | 1018.7 hPa | 0 mm | - | 313 W/m² | - |
| 1777273654 | 10° C | 61% | 1018.7 hPa | 0 mm | - | 301 W/m² | - |
| 1777273345 | 9.44° C | 65% | 1018.7 hPa | 0 mm | - | 297 W/m² | - |
| 1777273048 | 9.44° C | 64% | 1019 hPa | 0 mm | - | 281 W/m² | - |
| 1777272747 | 8.89° C | 64% | 1019 hPa | 0 mm | - | 272 W/m² | - |
| 1777272157 | 8.33° C | 66% | 1019.1 hPa | 0 mm | - | 253 W/m² | - |
| 1777271857 | 8.33° C | 67% | 1019.1 hPa | 0 mm | - | 251 W/m² | - |
| 1777271543 | 7.78° C | 68% | 1019.1 hPa | 0 mm | - | 237 W/m² | - |
| 1777271255 | 7.78° C | 70% | 1018.1 hPa | 0 mm | - | 229 W/m² | - |
| 1777270948 | 7.22° C | 70% | 1018.1 hPa | 0 mm | - | 214 W/m² | - |
| 1777270642 | 7.22° C | 71% | 1018.1 hPa | 0 mm | - | 209 W/m² | - |
| 1777270353 | 6.67° C | 73% | 1019.1 hPa | 0 mm | - | 195 W/m² | - |
| 1777270060 | 6.11° C | 75% | 1019.1 hPa | 0 mm | - | 188 W/m² | - |
| 1777269758 | 5.56° C | 75% | 1019.1 hPa | 0 mm | - | 176 W/m² | - |
| 1777269442 | 5.56° C | 74% | 1018.2 hPa | 0 mm | - | 160 W/m² | - |
| 1777269146 | 5.56° C | 76% | 1018.2 hPa | 0 mm | - | 146 W/m² | - |
| 1777268851 | 5° C | 77% | 1018.2 hPa | 0 mm | - | 132 W/m² | - |
| 1777268556 | 4.44° C | 76% | 1018.4 hPa | 0 mm | - | 135 W/m² | - |
| 1777268261 | 3.89° C | 77% | 1018.4 hPa | 0 mm | - | 128 W/m² | - |
| 1777267943 | 3.89° C | 77% | 1018.4 hPa | 0 mm | - | 98 W/m² | - |
| 1777267646 | 3.33° C | 78% | 1018.3 hPa | 0 mm | - | 120 W/m² | - |
| 1777267347 | 3.33° C | 79% | 1018.3 hPa | 0 mm | - | 107 W/m² | - |
* Rain since midnight (hover to see other rain measurements)
** Current wind speed in m/s (hover to see current wind gust speed)